Change the Weather History Date:

Thursday, March 28, 2013

  Actual Average Record
Temperature  
Mean Temperature 40 °F -  
Max Temperature 51 °F 43 °F 72 °F (1998)
Min Temperature 30 °F 26 °F 21 °F (2001)
Degree Days  
Heating Degree Days 25    
Moisture  
Dew Point 30 °F    
Average Humidity 71    
Maximum Humidity 89    
Minimum Humidity 39    
Precipitation  
Precipitation 0.01 in - - ()
Sea Level Pressure  
Sea Level Pressure 29.92 in    
Wind  
Wind Speed 1 mph (North)    
Max Wind Speed 7 mph    
Max Gust Speed -    
Visibility 10 miles    
Events      
Averages and records for this station are not official NWS values.
T = Trace of Precipitation, MM = Missing Value Source: NWS Daily Summary

Daily Weather History Graph

Daily Weather History Graph

Search for Another Location

Airport or City:

Trip Planner

Search our weather history database for the weather conditions in past years. The results will help you decide how hot, cold, wet, or windy it might be!

Date:

Astronomy

Mar. 28, 2013 Rise Set
Actual Time 6:27 AM EDT 7:01 PM EDT
Civil Twilight 5:58 AM EDT 7:30 PM EDT
Nautical Twilight 5:23 AM EDT 8:04 PM EDT
Astronomical Twilight 4:48 AM EDT 8:40 PM EDT
Moon 8:54 PM EDT (3/28) 6:49 AM EDT (3/28)
Length of Visible Light 13h 32m
Length of Day
12h 34m
Full, 98% of the Moon is Illuminated
Mar 28
Full
Apr 3
Last Quarter
Apr 10
New
Apr 18
First Quarter
Apr 25
Full

Hourly Weather History & Observations

Time (EDT) Temp. Windchill Dew Point Humidity Pressure Visibility Wind Dir Wind Speed Gust Speed Precip Events Conditions
12:53 AM 37.0 °F - 34.0 °F 89% 29.87 in 10.0 mi Calm Calm - N/A   Overcast
1:53 AM 36.0 °F - 33.1 °F 89% 29.87 in 10.0 mi Calm Calm - N/A   Overcast
2:53 AM 36.0 °F - 33.1 °F 89% 29.87 in 10.0 mi Calm Calm - N/A   Overcast
3:53 AM 36.0 °F - 33.1 °F 89% 29.88 in 10.0 mi Calm Calm - N/A   Overcast
4:53 AM 35.1 °F - 32.0 °F 89% 29.88 in 10.0 mi Calm Calm - N/A   Overcast
5:53 AM 35.1 °F - 32.0 °F 89% 29.89 in 10.0 mi Calm Calm - N/A   Overcast
6:53 AM 36.0 °F - 32.0 °F 86% 29.91 in 10.0 mi Calm Calm - N/A   Overcast
7:53 AM 37.0 °F 34.5 °F 32.0 °F 82% 29.92 in 10.0 mi Variable 3.5 mph - N/A   Overcast
8:53 AM 39.9 °F 37.8 °F 33.1 °F 77% 29.93 in 10.0 mi Variable 3.5 mph - N/A   Overcast
9:53 AM 43.0 °F 39.5 °F 32.0 °F 65% 29.93 in 10.0 mi Variable 5.8 mph - N/A   Overcast
10:53 AM 44.1 °F 40.8 °F 32.0 °F 63% 29.94 in 10.0 mi Variable 5.8 mph - N/A   Overcast
11:53 AM 44.1 °F 40.8 °F 30.9 °F 60% 29.94 in 10.0 mi Variable 5.8 mph - N/A   Overcast
12:53 PM 46.9 °F - 30.0 °F 52% 29.93 in 10.0 mi Calm Calm - N/A   Overcast
1:53 PM 46.9 °F - 26.1 °F 44% 29.93 in 10.0 mi Variable 4.6 mph - N/A   Overcast
2:53 PM 48.0 °F - 27.0 °F 44% 29.92 in 10.0 mi Variable 6.9 mph - N/A   Overcast
3:53 PM 48.9 °F - 26.1 °F 41% 29.91 in 10.0 mi Variable 3.5 mph - N/A   Overcast
4:53 PM 50.0 °F - 26.1 °F 39% 29.91 in 10.0 mi Calm Calm - N/A   Overcast
5:53 PM 50.0 °F - 26.1 °F 39% 29.91 in 10.0 mi Calm Calm - N/A   Scattered Clouds
6:53 PM 45.0 °F - 30.9 °F 58% 29.93 in 10.0 mi Calm Calm - N/A   Overcast
7:53 PM 42.1 °F - 34.0 °F 73% 29.95 in 10.0 mi Calm Calm - 0.01 in   Overcast
8:53 PM 37.0 °F - 32.0 °F 82% 29.96 in 10.0 mi Calm Calm - N/A   Scattered Clouds
9:53 PM 33.1 °F - 30.0 °F 89% 29.97 in 10.0 mi Calm Calm - N/A   Scattered Clouds
10:53 PM 30.9 °F - 27.0 °F 85% 29.97 in 10.0 mi Calm Calm - N/A   Clear
11:53 PM 30.0 °F - 27.0 °F 88% 29.97 in 10.0 mi Calm Calm - N/A   Clear